User: anonymous   Login
Location: Arbon
(43.0005°N, 0.7472°E)
Time: 07:08:58
(UTC+00:00)
Language:

Cosmos 2227 - Orbit

View from above orbital plane
View from above orbital plane
View from above satellite
View from above satellite

Ground track
Ground track

The orbit data is extracted from the following two-line orbital elements,

1 22284U 92093A   20296.14995632 -.00000249  00000-0 -10704-3 0  9991
2 22284  70.9804 191.6701 0016038 129.3772 230.8773 14.13330176435441
Epoch (UTC): 22 October 2020 03:35:56
Eccentricity: 0.0016038
inclination: 70.9804°
perigee height: 836 km
apogee height: 859 km
right ascension of ascending node: 191.6701°
argument of perigee: 129.3772°
revolutions per day: 14.13330176
mean anomaly at epoch: 230.8773°
orbit number at epoch: 43544

The dashed part of the orbit path shows where the satellite is in the earth's shadow,  

DLR